Theta_e
284 284 283 283 283 283 284 285 288 292 296 299 321 320 319 316 316 316 315 314 312 309
284 283 283 283 284 284 283 285 287 289 292 297 314 318 317 315 313 313 313 312 310 308
283 283 283 284 283 284 284 284 285 286 290 295 300 316 315 313 312 310 310 309 306 307
282 283 283 283 282 283 284 284 284 285 287 289 295 304 312 311 309 307 306 306 303 303
279 280 281 281 281 282 282 283 284 284 284 285 287 288 297 303 304 304 302 302 301 301
278 277 277 279 280 280 281 281 282 283 282 283 284 285 287 294 300 301 301 301 300 300
276 276 277 278 278 278 279 279 280 281 282 282 283 285 285 287 295 298 298 298 298 298
276 276 276 276 277 277 277 277 278 279 280 281 282 284 284 285 290 294 296 296 297 297
275 275 275 275 275 275 275 275 276 277 277 278 281 284 286 285 284 287 291 291 292 295
274 273 273 273 274 273 273 274 274 275 275 276 278 282 285 285 283 283 285 287 288 287
272 271 271 272 271 272 272 272 272 273 274 275 277 279 283 284 283 282 282 284 284 285
270 269 269 269 270 271 270 270 271 272 273 273 275 278 280 282 281 281 281 282 283 283
269 268 268 268 269 270 269 269 270 270 272 273 274 276 278 280 279 278 279 281 282 283
268 267 268 268 269 268 267 267 267 269 271 273 273 273 277 278 277 277 277 278 279 281
Wind_Speed
17 11 12 15 15 12 12 14 20 21 21 22 21 16 15 11 12 15 15 17 15 10
15 16 15 18 16 13 15 15 19 21 22 19 20 14 14 12 13 13 14 15 14 11
15 16 15 15 17 19 17 18 20 21 22 19 21 16 16 13 12 14 11 11 13 12
15 15 15 14 16 17 19 19 20 21 20 21 22 20 13 14 12 14 12 10 12 13
15 16 15 15 17 18 19 19 19 20 20 20 21 23 18 7 10 13 12 12 11 12
15 15 16 16 16 17 17 19 19 19 19 19 19 21 21 17 5 7 8 10 10 11
14 15 14 15 15 15 16 16 18 18 18 17 17 19 22 18 11 2 5 6 6 7
13 13 14 15 15 14 15 15 15 17 19 18 15 16 22 20 15 7 4 5 7 6
12 13 14 15 15 15 15 14 16 15 15 19 13 33 33 25 15 13 7 1 3 2
11 13 14 15 15 15 15 15 15 16 15 15 15 31 32 29 15 12 12 9 4 3
10 12 13 14 14 14 13 12 11 12 15 14 11 26 30 29 14 12 14 11 11 6
9 12 12 13 12 12 13 12 11 10 12 14 13 24 28 23 13 13 12 11 12 11
8 10 12 12 12 11 11 12 11 12 9 10 11 21 24 22 11 13 10 10 10 17
8 10 12 12 10 11 11 12 12 12 10 9 6 11 21 22 11 11 11 10 10 9
Wind_Direction
354 347 340 337 332 322 322 318 316 312 306 306 252 214 208 209 213 211 208 209 208 198
353 350 343 340 336 331 326 324 323 317 314 302 291 202 201 211 204 212 210 213 195 196
349 351 346 340 343 337 333 335 332 328 323 327 331 224 210 207 200 201 211 202 187 199
344 347 348 346 343 343 336 343 341 337 338 349 343 314 218 207 194 195 196 191 187 192
339 342 343 347 344 344 345 344 347 341 347 357 351 352 335 286 190 188 187 186 184 188
339 340 340 339 343 342 348 344 348 346 350 353 348 353 345 330 278 179 177 184 181 184
336 336 335 336 341 340 343 345 346 344 343 349 348 358 349 332 307 328 156 162 171 174
329 331 332 336 338 342 341 339 340 344 342 344 353 356 352 348 333 329 257 159 167 170
328 331 333 335 335 339 340 341 339 341 345 342 346 350 359 359 343 344 321 350 116 134
326 327 331 330 332 335 336 338 337 334 338 342 341 349 354 357 355 346 3 339 46 65
326 324 325 327 328 329 330 331 329 330 329 330 340 347 350 358 347 358 9 345 23 30
323 321 322 323 323 323 327 325 323 328 325 326 332 347 349 357 342 358 352 0 14 23
316 314 314 312 314 319 319 313 321 317 320 318 330 342 346 354 349 347 346 349 7 8
309 311 306 309 315 314 313 314 315 316 320 316 347 338 344 350 349 346 342 343 353 347